STARLINK-32024 (60112 NORAD) Tracking and Keplerian Element Data

This shows tracking and keplerian element data for the satellite.

Feedback or suggestion? Click here.




ElementValue
Catalog60112
NameSTARLINK-32024
Epoch Orbit1829
Epoch Day286.34439835
Epoch Year2024
RAAN261.367
Inclination53.1597
Eccentricity0.0001337
Argument of Perigee75.6564
Mean Anonmoly284.4585
Mean Motion15.30167817
Decay Rate-4.664E-05
L11 60112U 24117X 24286.34439835 -.00004664 00000+0 -14559-3 0 9994
L22 60112 53.1597 261.3670 0001337 75.6564 284.4585 15.30167817 18299



Live tracking and technical data element details for STARLINK-32024 (NORAD 60112). STARLINK-32024 can be tracked NOW for your location showing map with azimuth and elevation plus other details from your city location.







IsCatalogInMostPopularTable: catalog: 60112, numindb: 6
Update: records affected: 1



GetName: 60112 STARLINK-32024

Hit Count: updated at: Thu, 23 Jan 2025 14:44:27 GMT